Lancaster, PA

10:19 PM EST on December 09, 2016 (GMT -0500)
Lancaster

Weather History for KLNS - January, 2009

Change the Weather History Date:

Thursday, January 15, 2009

  Actual Average Record
Temperature  
Mean Temperature 14 °F -  
Max Temperature 19 °F 37 °F 62 °F (1992)
Min Temperature 10 °F 22 °F 0 °F (1988)
Degree Days  
Heating Degree Days 50    
Moisture  
Dew Point 7 °F    
Average Humidity 67    
Maximum Humidity 88    
Minimum Humidity 47    
Precipitation  
Precipitation 0.00 in - - ()
Sea Level Pressure  
Sea Level Pressure 30.23 in    
Wind  
Wind Speed 9 mph (NW)    
Max Wind Speed 21 mph    
Max Gust Speed 29 mph    
Visibility 8 miles    
Events Snow    
Averages and records for this station are not official NWS values.
T = Trace of Precipitation, MM = Missing Value Source: NWS Daily Summary

Daily Weather History Graph

Daily Weather History Graph

Search for Another Location

Airport or City:

Trip Planner

Search our weather history database for the weather conditions in past years. The results will help you decide how hot, cold, wet, or windy it might be!

Date:

Astronomy

Jan. 15, 2009 Rise Set
Actual Time 7:25 AM EST 5:04 PM EST
Civil Twilight 6:55 AM EST 5:34 PM EST
Nautical Twilight 6:22 AM EST 6:07 PM EST
Astronomical Twilight 5:49 AM EST 6:40 PM EST
Moon 10:44 PM EST (1/15) 9:56 AM EST (1/15)
Length of Visible Light 10h 38m
Length of Day
9h 38m
Waning Gibbous, 74% of the Moon is Illuminated
Jan 15
Waning Gibbous
Jan 17
Last Quarter
Jan 26
New
Feb 2
First Quarter
Feb 9
Full

Hourly Weather History & Observations

Time (EST) Temp. Windchill Dew Point Humidity Pressure Visibility Wind Dir Wind Speed Gust Speed Precip Events Conditions
12:53 AM 18.0 °F 11.1 °F 9.0 °F 68% 30.07 in 10.0 mi ENE 4.6 mph - N/A   Partly Cloudy
1:53 AM 18.0 °F 11.1 °F 9.0 °F 68% 30.05 in 10.0 mi NE 4.6 mph - N/A   Overcast
2:53 AM 18.0 °F 8.7 °F 10.0 °F 71% 30.05 in 10.0 mi NE 6.9 mph - N/A   Overcast
3:53 AM 19.9 °F 10.1 °F 10.0 °F 65% 30.05 in 10.0 mi ENE 8.1 mph - N/A   Overcast
4:53 AM 19.0 °F 8.2 °F 10.9 °F 71% 30.06 in 4.0 mi NE 9.2 mph - 0.00 in Snow Light Snow
5:16 AM 19.4 °F 8.6 °F 12.2 °F 74% 30.05 in 4.0 mi NNE 9.2 mph - 0.00 in Snow Light Snow
5:28 AM 19.4 °F 10.4 °F 12.2 °F 74% 30.06 in 2.5 mi North 6.9 mph - 0.00 in Snow Light Snow
5:53 AM 18.0 °F 11.1 °F 14.0 °F 84% 30.10 in 1.2 mi North 4.6 mph - 0.00 in Snow Light Snow
6:21 AM 17.6 °F 8.2 °F 14.0 °F 86% 30.10 in 2.0 mi NW 6.9 mph - 0.00 in Snow Light Snow
6:53 AM 17.1 °F 10.0 °F 14.0 °F 88% 30.14 in 3.0 mi NW 4.6 mph - 0.00 in Snow Light Snow
7:53 AM 16.0 °F 8.8 °F 12.9 °F 88% 30.17 in 3.0 mi WNW 4.6 mph - 0.00 in Snow Light Snow
8:05 AM 15.8 °F 7.2 °F 10.4 °F 79% 30.17 in 3.0 mi West 5.8 mph - 0.00 in Snow Light Snow
8:53 AM 18.0 °F 6.9 °F 14.0 °F 84% 30.23 in 10.0 mi West 9.2 mph - 0.00 in   Overcast
9:53 AM 19.0 °F 4.0 °F 12.9 °F 77% 30.25 in 4.0 mi NW 17.3 mph 23.0 mph 0.00 in Snow Light Snow
10:29 AM 19.4 °F 5.5 °F 10.4 °F 68% 30.24 in 10.0 mi NW 15.0 mph 24.2 mph 0.00 in   Overcast
10:53 AM 19.9 °F 4.3 °F 9.0 °F 62% 30.26 in 10.0 mi NW 19.6 mph - 0.00 in   Mostly Cloudy
11:53 AM 19.9 °F 3.9 °F 7.0 °F 57% 30.25 in 10.0 mi NW 20.7 mph 28.8 mph N/A   Mostly Cloudy
12:53 PM 19.9 °F 4.3 °F 5.0 °F 52% 30.26 in 10.0 mi NW 19.6 mph 25.3 mph N/A   Mostly Cloudy
1:53 PM 19.9 °F 5.2 °F 5.0 °F 52% 30.27 in 10.0 mi WNW 17.3 mph 24.2 mph N/A   Mostly Cloudy
2:53 PM 19.0 °F 4.5 °F 3.9 °F 52% 30.29 in 10.0 mi NW 16.1 mph 23.0 mph N/A   Mostly Cloudy
3:53 PM 19.0 °F 3.2 °F 1.9 °F 47% 30.31 in 10.0 mi WNW 19.6 mph 24.2 mph N/A   Scattered Clouds
4:53 PM 18.0 °F 2.6 °F 1.9 °F 50% 30.35 in 10.0 mi WNW 17.3 mph 23.0 mph N/A   Scattered Clouds
5:53 PM 16.0 °F 0.6 °F 1.0 °F 52% 30.39 in 10.0 mi West 16.1 mph - N/A   Clear
6:53 PM 15.1 °F 0.5 °F -0.0 °F 51% 30.41 in 10.0 mi West 13.8 mph - N/A   Clear
7:53 PM 12.9 °F 1.6 °F 1.0 °F 59% 30.42 in 10.0 mi West 8.1 mph - N/A   Clear
8:53 PM 12.0 °F 0.5 °F 1.0 °F 61% 30.44 in 10.0 mi WNW 8.1 mph - N/A   Clear
9:53 PM 12.0 °F -0.4 °F 1.0 °F 61% 30.44 in 10.0 mi West 9.2 mph - N/A   Clear
10:53 PM 10.9 °F 0.2 °F 1.0 °F 64% 30.45 in 10.0 mi West 6.9 mph - N/A   Clear
11:53 PM 10.0 °F 0.4 °F 1.0 °F 67% 30.47 in 10.0 mi West 5.8 mph - N/A   Clear